Regional Weather Roundup
Issued by NWS

Home | Current Version | Previous Version | Graphics & Text | Print | Product List | Glossary On
Versions: 1 2 3 4 5 6 7 8 9 10 11 12 13 14 15 16 17 18 19 20 21 22 23 24 25 26 27 28 29 30 31 32 33 34 35 36 37 38 39 40 41 42 43 44 45 46 47 48 49 50
649
ASUS43 KLMK 291510
RWRKY
KENTUCKY REGIONAL WEATHER ROUNDUP
NATIONAL WEATHER SERVICE LOUISVILLE KY
1100 AM EDT WED MAR 29 2017

NOTE "FAIR" INDICATES FEW OR NO CLOUDS BELOW 12,000 FEET
WITH NO SIGNIFICANT WEATHER AND/OR OBSTRUCTIONS TO VISIBILITY.

KYZ001>023-026-027-061>063-070>075-291600-
WESTERN AND SOUTH CENTRAL KENTUCKY

CITY           SKY/WX    TMP DP  RH WIND       PRES   REMARKS
PADUCAH        CLOUDY    60  52  74 SE6       30.05R
HENDERSON      MOSUNNY   57  48  72 E13       30.06R
OWENSBORO      SUNNY    N/A N/A N/A E12       30.07S
HOPKINSVILLE   SUNNY     61  56  82 E14       30.03S
BOWLING GREEN  SUNNY     63  54  72 E9        30.07F
GLASGOW        SUNNY     61  53  73 E9        30.08S
$$

KYZ024-025-028>034-038-045-046-053-291600-
NORTH CENTRAL KENTUCKY

CITY           SKY/WX    TMP DP  RH WIND       PRES   REMARKS
LOUISVILLE/SDF CLOUDY    57  46  66 E10       30.13S
LOUISVILLE/LOU CLOUDY    56  46  69 E8        30.14S
FORT KNOX      CLOUDY    57  49  75 E13       30.10S
$$

KYZ035>037-039>044-047>052-055>060-089>105-291600-
NORTHEAST KENTUCKY

CITY           SKY/WX    TMP DP  RH WIND       PRES   REMARKS
LEXINGTON      CLOUDY    53  45  74 E12       30.16R
COVINGTON      MOSUNNY   50  38  63 NE10      30.19R
FRANKFORT      CLOUDY    52  44  74 NE8       30.15S
$$

KYZ054-064>069-076>088-106>120-291600-
SOUTHEAST KENTUCKY

CITY           SKY/WX    TMP DP  RH WIND       PRES   REMARKS
JACKSON        CLOUDY    54  48  80 CALM      30.15R
LONDON         MOSUNNY   61  49  64 E10       30.12R
SOMERSET       CLOUDY    59  50  72 E8        30.12S
MIDDLESBORO    SUNNY     63  52  68 CALM      30.11S
MONTICELLO     CLOUDY    61  54  77 N6G22     30.11S
$$





USA.gov is the U.S. government's official web portal to all federal, state and local government web resources and services.